Wyniki Bieg Anioła

M-ce Numer Nazwisko Imię Płeć M-ce M/K Miejscowość Klub DYSTANS Czas netto CZAS STARTU czas brutto Prędkość km/h x Tempo min/km x
1 93 GUMKOWSKI SZYMON M 1 GDAŃSK 5km 0:17:23 0:00:01 0:17:24 17.26 [km/h] 11:29 [min/km]
2 296 WOJNOWSKI MICHAŁ M 2 GDAŃSK DREAM TRI TEAM 5km 0:17:29 0:00:00 0:17:29 17.16 [km/h] 11:30 [min/km]
3 45 CZAPIEWSKI PAWEŁ M 3 OSÓWKO 5km 0:18:10 0:00:06 0:18:16 16.51 [km/h] 11:38 [min/km]
4 175 KWIATKOWSKI SEBASTIAN M 4 NOWY DWÓR GDAŃSKI SECESPOL 5km 0:18:33 0:00:02 0:18:35 16.17 [km/h] 11:43 [min/km]
5 38 CHUDEWNIAK TOMEK M 5 JUNOSZYNO WILKI ŻUŁAWSKIE 5km 0:19:08 0:00:01 0:19:09 15.68 [km/h] 11:50 [min/km]
6 279 TOKARSKI BARTOSZ M 6 GDYNIA SAILORS 5km 0:19:23 0:00:02 0:19:25 15.48 [km/h] 11:53 [min/km]
7 127 KACZKOWSKA KATARZYNA K 1 STRASZYN 5km 0:20:10 0:00:00 0:20:10 14.88 [km/h] 11:02 [min/km]
8 219 ORZOŁ KAMIL M 7 GDYNIA NORDEA 5km 0:20:19 0:00:06 0:20:25 14.77 [km/h] 11:04 [min/km]
9 59 DYBUK MARCIN M 8 GDAŃSK 5km 0:20:39 0:00:00 0:20:39 14.53 [km/h] 11:08 [min/km]
10 79 GLEINERT SZYMON M 9 ŻUKOWO 5km 0:20:53 0:00:05 0:20:58 14.37 [km/h] 11:11 [min/km]
11 36 CHUDEWNIAK AGNIESZKA K 2 WROCŁAW TRIATHLON CLUB WROCŁAW 5km 0:21:18 0:00:04 0:21:22 14.08 [km/h] 11:16 [min/km]
12 11 BARSKI BARTŁOMIEJ M 10 BORKOWO VISIT GDANSK 5km 0:21:25 0:00:05 0:21:30 14.01 [km/h] 11:17 [min/km]
13 305 ZIENKIEWICZ RAFAL M 11 TCZEW 5km 0:21:26 0:00:10 0:21:36 14.00 [km/h] 11:17 [min/km]
14 286 WĄSIK DAREK M 12 PRUSZCZU GDAŃSKI PRUSZCZ BIEGA,49 BAZA LOTNICZA 5km 0:21:31 0:00:01 0:21:32 13.94 [km/h] 11:18 [min/km]
15 136 KLUCZKA DAWID M 13 GDAŃSK MORENA 5km 0:21:34 0:00:06 0:21:40 13.91 [km/h] 11:19 [min/km]
16 75 GDANIEC SŁAWOMIR M 14 TCZEW BIEGAJĄCY TCZEW 5km 0:21:34 0:00:24 0:21:58 13.91 [km/h] 11:19 [min/km]
17 134 KLEDZIK MACIEJ M 15 GDANSK 5km 0:21:35 0:00:00 0:21:35 13.90 [km/h] 11:19 [min/km]
18 165 KUNIKOWSKI ANDRZEJ M 16 BIELKOWO 5km 0:21:47 0:00:12 0:21:59 13.77 [km/h] 11:21 [min/km]
19 15 BEJM ŁUKASZ M 17 GDAŃSK 5km 0:21:47 0:00:05 0:21:52 13.77 [km/h] 11:21 [min/km]
20 128 KAŁAS MAGDALENA K 3 GDAŃSK 5km 0:21:50 0:00:00 0:21:50 13.74 [km/h] 11:22 [min/km]
21 14 BEDNARSKI MARCIN M 18 GDAŃSK NORDEA 5km 0:21:58 0:00:07 0:22:05 13.66 [km/h] 11:24 [min/km]
22 185 LIPKOWSKI PAWEŁ M 19 TCZEW 3ATHLETE 5km 0:22:03 0:00:09 0:22:12 13.61 [km/h] 11:25 [min/km]
23 209 NAŁĘCZ ADAM M 20 STRASZYN PARKAN 5km 0:22:04 0:00:02 0:22:06 13.60 [km/h] 11:25 [min/km]
24 268 STEFANIAK LESZEK M 21 GDAŃSK DREAM TRI TEAM 5km 0:22:15 0:00:14 0:22:29 13.48 [km/h] 11:27 [min/km]
25 48 CZESZEJKO-SOCHACKI JONASZ M 22 WARSZAWA SAUCONY FREEDOM TEAM 5km 0:22:21 0:00:05 0:22:26 13.42 [km/h] 11:28 [min/km]
26 173 KWIATKOWSKI GRZEGORZ M 23 GDAŃSK F3TEAM 5km 0:22:35 0:00:02 0:22:37 13.28 [km/h] 11:31 [min/km]
27 197 MAZUREK MARIUSZ M 24 GDAŃSK MORENA 5km 0:22:55 0:00:06 0:23:01 13.09 [km/h] 11:35 [min/km]
28 67 FRANKIEWICZ SZYMON M 25 GDAŃSK IRON TEAM 5km 0:23:04 0:00:19 0:23:23 13.01 [km/h] 11:37 [min/km]
29 232 POPOWSKA MAGDALENA K 4 GDAŃSK WYDZIAŁOWY TEAM BIEGOWY WZIE PG 5km 0:23:07 0:00:03 0:23:10 12.98 [km/h] 11:37 [min/km]
30 182 LEWINSKI KRZYSZTOF M 26 PRUSZCZ GDAŃSKI IRON TEAM - 49 BAZA LOTNICZA 5km 0:23:15 0:00:01 0:23:16 12.90 [km/h] 11:39 [min/km]
31 298 WOZBANOWICZ JACEK M 27 STRASZYN STRASZYN BIEGA 5km 0:23:15 0:00:07 0:23:22 12.90 [km/h] 11:39 [min/km]
32 179 LAUBE JANUSZ M 28 GDAŃSK 5km 0:23:23 0:00:15 0:23:38 12.83 [km/h] 11:41 [min/km]
33 69 FURTAK ARKADIUSZ M 29 SZTUTOWO BŁĘKITNI MIERZEJA 5km 0:23:25 0:00:11 0:23:36 12.81 [km/h] 11:41 [min/km]
34 241 RAPACKI SZYMON M 30 GDAŃSK NORDEA 5km 0:23:26 0:00:06 0:23:32 12.80 [km/h] 11:41 [min/km]
35 56 DĄBROWSKI MARIUSZ M 31 GDAŃSK SECESPOL 5km 0:23:27 0:00:13 0:23:40 12.79 [km/h] 11:41 [min/km]
36 250 RUCIŃSKI ARKADIUSZ M 32 TCZEW 5km 0:23:28 0:00:04 0:23:32 12.78 [km/h] 11:42 [min/km]
37 39 CHUDEWNIAK WOJCIECH M 33 JUNOSZYNO WILKI ŻUŁAWSKIE 5km 0:23:40 0:00:05 0:23:45 12.68 [km/h] 11:44 [min/km]
38 95 HARBASZEWSKA KATARZYNA K 5 GDAŃSK NORDEA 5km 0:24:08 0:00:06 0:24:14 12.43 [km/h] 11:50 [min/km]
39 266 STAWICKI ANDRZEJ M 34 GDAŃSK GOYELLO POWER CLUB 5km 0:24:21 0:00:12 0:24:33 12.32 [km/h] 11:52 [min/km]
40 261 SMENTOCH RADEK M 35 ŻUKOWO NIEDZIELNI BIEGACZE 5km 0:24:29 0:00:04 0:24:33 12.25 [km/h] 11:54 [min/km]
41 163 KULGAJUK MICHAL M 36 PRUSZCZ GDANSKI SUT, PRUSZCZ BIEGA 5km 0:24:30 0:00:08 0:24:38 12.24 [km/h] 11:54 [min/km]
42 218 OLIWNIAK MARCIN M 37 GDAŃSK 5km 0:24:31 0:00:25 0:24:56 12.24 [km/h] 11:54 [min/km]
43 204 MUZOLF DOROTA K 6 PRUSZCZ GDAŃSKI PRUSZCZ BIEGA 5km 0:24:31 0:00:07 0:24:38 12.24 [km/h] 11:54 [min/km]
44 220 OSMAŃSKI MICHAŁ M 38 GDAŃSK 5km 0:24:34 0:00:15 0:24:49 12.21 [km/h] 11:55 [min/km]
45 142 KONIECZKA KLAUDIUSZ M 39 GDANSK NORDEA 5km 0:24:48 0:00:07 0:24:55 12.10 [km/h] 11:58 [min/km]
46 43 CISZEK SEBASTIAN M 40 GDAŃSK IRON TEAM 5km 0:24:49 0:00:14 0:25:03 12.09 [km/h] 11:58 [min/km]
47 35 CHOMICKI DOMINIK M 41 GDAŃSK NORDEA 5km 0:24:51 0:00:28 0:25:19 12.07 [km/h] 11:58 [min/km]
48 194 MAŁCZAK MAGDALENA K 7 PRUSZCZ GDAŃSKI 5km 0:24:52 0:00:10 0:25:02 12.06 [km/h] 11:58 [min/km]
49 230 POLAK LUCJAN M 42 GDAŃSK KLUB BIEGACZY JYSK 5km 0:24:57 0:00:19 0:25:16 12.02 [km/h] 11:59 [min/km]
50 276 ŚWIECA GRZEGORZ M 43 GDAŃSK IRON TEAM 5km 0:25:06 0:00:14 0:25:20 11.95 [km/h] 11:01 [min/km]
51 138 KNUT MAGDALENA K 8 GDANSK 5km 0:25:11 0:00:08 0:25:19 11.91 [km/h] 11:02 [min/km]
52 23 BOBERSKI ARTUR M 44 GDAŃSK RMDC 5km 0:25:15 0:00:12 0:25:27 11.88 [km/h] 11:03 [min/km]
53 7 BANASZEK IWONA K 9 GDAŃSK IRON TEAM 5km 0:25:16 0:00:02 0:25:18 11.87 [km/h] 11:03 [min/km]
54 302 ZAJĄC MACIEJ M 45 GDAŃSK DREAM TRI TEAM 5km 0:25:19 0:00:00 0:25:19 11.85 [km/h] 11:04 [min/km]
55 162 KULESZA LIDIA K 10 GDAŃSK 5km 0:25:21 0:00:15 0:25:36 11.83 [km/h] 11:04 [min/km]
56 60 DZIADUCH DAMIAN M 46 GDAŃSK KOMEDIANCI 5km 0:25:23 0:00:14 0:25:37 11.82 [km/h] 11:05 [min/km]
57 285 WAWRZYNIAK FELIKS M 47 TCZEW 5km 0:25:27 0:00:08 0:25:35 11.79 [km/h] 11:05 [min/km]
58 76 GEDERA PIOTR M 48 PRUSZCZ GDAŃSKI SECESPOL 5km 0:25:28 0:00:22 0:25:50 11.78 [km/h] 11:06 [min/km]
59 297 WOODS MICHAEL M 49 BELFAST 5km 0:25:31 0:00:00 0:25:31 11.76 [km/h] 11:06 [min/km]
60 157 KREFT EWA K 11 GDAŃSK DREAM TRI TEAM 5km 0:25:38 0:00:00 0:25:38 11.70 [km/h] 11:08 [min/km]
61 115 JARMOŁOWICZ BEATA K 12 GDAŃSK DREAM TRI TEAM 5km 0:25:38 0:00:00 0:25:38 11.70 [km/h] 11:08 [min/km]
62 184 LIGENZA ZBIGNIEW M 50 PRUSZCZ GDAŃSKI DREAM TRI TEAM/ PRUSZCZ BIEGA 5km 0:25:38 0:00:00 0:25:38 11.70 [km/h] 11:08 [min/km]
63 8 BARANOWSKI KRZYSZTOF M 51 SKARSZEWY BBL STAROGARD GDANSKI 5km 0:25:45 0:00:12 0:25:57 11.65 [km/h] 11:09 [min/km]
64 213 NICEWICZ PAWEŁ M 52 GDAŃSK KOMEDIANCI 5km 0:25:46 0:00:13 0:25:59 11.64 [km/h] 11:09 [min/km]
65 176 LANGE KATARZYNA K 13 GDAŃSK IRON TEAM 5km 0:25:49 0:00:10 0:25:59 11.62 [km/h] 11:10 [min/km]
66 229 POCHOPIEŃ MIRA K 14 GDAŃSK WATAHA-ŁĄCZY NAS BIEGANIE 5km 0:25:52 0:00:18 0:26:10 11.60 [km/h] 11:10 [min/km]
67 72 GAJEWSKI KRZYSZTOF M 53 ZIELONA GÓRA TRIATHLON CLUB WROCŁAW 5km 0:25:52 0:00:03 0:25:55 11.60 [km/h] 11:10 [min/km]
68 224 PIELECKI ZBIGNIEW M 54 NOWY DWÓR GDAŃSKI SECESPOL 5km 0:25:52 0:00:10 0:26:02 11.60 [km/h] 11:10 [min/km]
69 168 KUROWSKI WOJCIECH M 55 GDAŃSK WATAHA 5km 0:25:57 0:00:21 0:26:18 11.56 [km/h] 11:11 [min/km]
70 299 WROŃSKA DOROTA K 15 LUBAWA LUBAWA KOCHA BIEGAĆ #WAWRZYNTEAM 5km 0:25:59 0:00:15 0:26:14 11.55 [km/h] 11:12 [min/km]
71 211 NAŁĘCZ PAWEŁ M 56 STRASZYN PARKAN 5km 0:26:03 0:00:00 0:26:03 11.52 [km/h] 11:13 [min/km]
72 20 BIEŃKOWSKI TOMASZ M 57 GDAŃSK SECESPOL 5km 0:26:07 0:00:26 0:26:33 11.49 [km/h] 11:13 [min/km]
73 227 PIOTROWSKA DAGMARA K 16 GDAŃSK IRON TEAM 5km 0:26:07 0:00:07 0:26:14 11.49 [km/h] 11:13 [min/km]
74 25 BOROWIK KRZYSZTOF M 58 GDAŃSK RYSZARD BIEGAJ 5km 0:26:12 0:00:15 0:26:27 11.45 [km/h] 11:14 [min/km]
75 183 LIEDTKE DARIUSZ M 59 TCZEW 3ATHLETE 5km 0:26:13 0:00:10 0:26:23 11.44 [km/h] 11:15 [min/km]
76 74 GDANIEC ANNA K 17 STAROGARD GDAŃSKI 5km 0:26:19 0:00:08 0:26:27 11.40 [km/h] 11:16 [min/km]
77 225 PIĘTA SYLWESTER M 60 STRASZYN STRASZYN BIEGA 5km 0:26:22 0:00:22 0:26:44 11.38 [km/h] 11:16 [min/km]
78 269 STĘPIEŃ KRYSTIAN M 61 GDAŃSK 5km 0:26:25 0:00:32 0:26:57 11.36 [km/h] 11:17 [min/km]
79 100 MICKIEWICZ MAGDALENA K 18 STRASZYN STRASZYN BIEGAYN BIEGA 5km 0:26:25 0:00:08 0:26:33 11.36 [km/h] 11:17 [min/km]
80 42 CIEŚLIK MARTA K 19 PRUSZCZ GDAŃSKI PRUSZCZ BIEGA "SHOW MUST GO ON" 5km 0:26:29 0:00:08 0:26:37 11.33 [km/h] 11:18 [min/km]
81 277 TADEJA RADOSŁAW M 62 GDAŃSK 5km 0:26:36 0:00:00 0:26:36 11.28 [km/h] 11:19 [min/km]
82 102 HINC STANISŁAW M 63 KOWALE SHOW MUST GO ON - PRUSZCZ BIEGA 5km 0:26:36 0:00:00 0:26:36 11.28 [km/h] 11:19 [min/km]
83 61 FAŁDOWSKI KAMIL M 64 GDAŃSK 5km 0:26:47 0:00:01 0:26:48 11.20 [km/h] 11:21 [min/km]
84 195 MATYSIAK GRZEGORZ M 65 GDAŃSK IRON TEAM 5km 0:26:47 0:00:28 0:27:15 11.20 [km/h] 11:21 [min/km]
85 166 KURCZEWSKA SYLWIA K 20 GDAŃSK 5km 0:26:50 0:00:09 0:26:59 11.18 [km/h] 11:22 [min/km]
86 53 DĄBKOWSKA ALEKSANDRA K 21 GDAŃSK TRIMAMA TEAM 5km 0:26:53 0:00:13 0:27:06 11.16 [km/h] 11:23 [min/km]
87 148 KOSSECKI MICHAŁ M 66 TCZEW 5km 0:27:00 0:00:00 0:27:00 11.11 [km/h] 11:24 [min/km]
88 254 SEROCZYŃSKI ADAM M 67 IŁAWA 5km 0:27:01 0:00:14 0:27:15 11.10 [km/h] 11:24 [min/km]
89 280 TUR-BONISŁAWSKA GRAŻYNA K 22 STRASZYN 5km 0:27:04 0:00:21 0:27:25 11.08 [km/h] 11:25 [min/km]
90 172 KWIATKOWSKA JOANNA K 23 IŁAWA LODOWACI IŁAWA 5km 0:27:04 0:00:15 0:27:19 11.08 [km/h] 11:25 [min/km]
91 167 KUROWSKI MICHAŁ M 68 GDAŃSK GRZEŚ TEAM GDAŃSK 5km 0:27:04 0:00:00 0:27:04 11.08 [km/h] 11:25 [min/km]
92 169 KURZEPA MARCIN M 69 GDAŃSK 5km 0:27:13 0:00:04 0:27:17 11.02 [km/h] 11:27 [min/km]
93 97 HEFCZYC WOJCIECH M 70 PRUSZCZ GDAŃSKI NORDEA 5km 0:27:16 0:00:27 0:27:43 11.00 [km/h] 11:27 [min/km]
94 151 KOWNACKA KLAUDIA K 24 GDAŃSK 5km 0:27:19 0:00:04 0:27:23 10.98 [km/h] 11:28 [min/km]
95 5 ARMATYŃSKA MAŁGORZATA K 25 GDYNIA NESSOWE ANIOŁKI 5km 0:27:20 0:00:03 0:27:23 10.98 [km/h] 11:28 [min/km]
96 101 HINC IWONA K 26 ŻUKOWO-BORKOWO NESSOWE ANIOŁKI 5km 0:27:22 0:00:01 0:27:23 10.96 [km/h] 11:28 [min/km]
97 106 JABŁOŃSKI TOMASZ M 71 GDAŃSK 5km 0:27:23 0:00:18 0:27:41 10.96 [km/h] 11:29 [min/km]
98 248 ROŻNOWSKI BARTOSZ M 72 PRUSZCZ GD. 5km 0:27:26 0:00:08 0:27:34 10.94 [km/h] 11:29 [min/km]
99 205 MYSZK NATALIA K 27 SIERAKOWICE KS BAT 5km 0:27:30 0:00:01 0:27:31 10.91 [km/h] 11:30 [min/km]
100 287 WENTA WIESŁAWA K 28 SIERAKOWICE KS BAT 5km 0:27:30 0:00:01 0:27:31 10.91 [km/h] 11:30 [min/km]
101 44 CZAICKI GRZEGORZ M 73 GDAŃSK LIDER Z SERCEM 5km 0:27:34 0:00:05 0:27:39 10.88 [km/h] 11:31 [min/km]
102 55 DĄBROWSKI KRZYSZTOF M 74 GDAŃSK SECESPOL 5km 0:27:34 0:00:14 0:27:48 10.88 [km/h] 11:31 [min/km]
103 155 KRASOWSKI ANDRZEJ M 75 DĘBOGÓRZE APLITT 5km 0:27:37 0:00:08 0:27:45 10.86 [km/h] 11:31 [min/km]
104 223 PAWŁOWSKA MAGDALENA K 29 GDYNIA SIZAN- WOI GDAŃSK 5km 0:27:41 0:00:13 0:27:54 10.84 [km/h] 11:32 [min/km]
105 130 KAMROWSKA KATARZYNA K 30 PRUSZCZ GDAŃSKI 5km 0:27:47 0:00:03 0:27:50 10.80 [km/h] 11:33 [min/km]
106 140 KOŁOWROCKI ADAM M 76 STRASZYN KOŁOWROTKI 5km 0:27:48 0:00:00 0:27:48 10.79 [km/h] 11:34 [min/km]
107 156 KRAUSE KAROLINA K 31 PIERWOSZYNO 5km 0:27:50 0:00:11 0:28:01 10.78 [km/h] 11:34 [min/km]
108 233 PRETWIC-KRAJEWSKA AGNIESZKA K 32 GDAŃSK 5km 0:27:51 0:00:18 0:28:09 10.77 [km/h] 11:34 [min/km]
109 294 WIŚNIEWSKI SZYMON M 77 RUMIA RUMSKI KLUB TENISOWY 5km 0:27:51 0:00:11 0:28:02 10.77 [km/h] 11:34 [min/km]
110 271 SULŻYCKA MARTA K 33 GDAŃSK/KOWALE 5km 0:27:54 0:00:03 0:27:57 10.75 [km/h] 11:35 [min/km]
111 143 KONIECZNA AGNIESZKA K 34 GDYNIA 5km 0:28:05 0:00:11 0:28:16 10.68 [km/h] 11:37 [min/km]
112 258 SIUMA EMILIA K 35 GDAŃSK 5km 0:28:05 0:00:28 0:28:33 10.68 [km/h] 11:37 [min/km]
113 222 PAWLUKOWSKI ZBIGNIEW M 78 BRANIEWO 5km 0:28:13 0:00:29 0:28:42 10.63 [km/h] 11:39 [min/km]
114 178 LATOSIŃSKI JACEK M 79 GDAŃSK 5km 0:28:16 0:00:02 0:28:18 10.61 [km/h] 11:39 [min/km]
115 107 JADCZAK AGNIESZKA K 36 PRUSZCZ GDAŃSKI 5km 0:28:19 0:00:05 0:28:24 10.59 [km/h] 11:40 [min/km]
116 135 KLEIN KAMIL M 80 STAROGARD GDANSKI 5km 0:28:24 0:00:03 0:28:27 10.56 [km/h] 11:41 [min/km]
117 243 REJEK WŁODZIMIERZ M 81 GDAŃSK 5km 0:28:28 0:00:16 0:28:44 10.54 [km/h] 11:42 [min/km]
118 16 RUTKOWSKI RAFAŁ M 82 GDAŃSK 5km 0:28:32 0:00:11 0:28:43 10.51 [km/h] 11:42 [min/km]
119 21 BLOK MARTA K 37 PRUSZCZ GDAŃSKI PRUSZCZ BIEGA Z KOBIETĄ W BIEGU 5km 0:28:33 0:00:06 0:28:39 10.51 [km/h] 11:43 [min/km]
120 80 GNEBA BEATA K 38 GDAŃSK 5km 0:28:34 0:00:00 0:28:34 10.50 [km/h] 11:43 [min/km]
121 264 STANKIEWICZ AGATA K 39 BIAŁYSTOK 5km 0:28:38 0:00:23 0:29:01 10.48 [km/h] 11:44 [min/km]
122 120 JASTRZĘBSKA EMILIA K 40 GNIEWINO 5km 0:28:39 0:00:23 0:29:02 10.47 [km/h] 11:44 [min/km]
123 189 ŁUDCZAK KRZYSZTOF M 83 GDAŃSK PARKRUN GDAŃSK- POŁUDNIE 5km 0:28:41 0:00:09 0:28:50 10.46 [km/h] 11:44 [min/km]
124 206 NABAKOWSKA BARBARA K 41 GDAŃSK MARTATONKA 5km 0:28:41 0:00:12 0:28:53 10.46 [km/h] 11:44 [min/km]
125 190 ŁUDCZAK SYLWIA K 42 GDAŃSK PARKRUN GDAŃSK- POŁUDNIE 5km 0:28:42 0:00:08 0:28:50 10.45 [km/h] 11:44 [min/km]
126 70 GADOMSKA AGNIESZKA K 43 GDAŃSK 5km 0:28:42 0:00:29 0:29:11 10.45 [km/h] 11:44 [min/km]
127 215 NOWAK MONIKA ANNA K 44 GDAŃSK 5km 0:28:42 0:00:25 0:29:07 10.45 [km/h] 11:44 [min/km]
128 50 CZĘŚCIK JAKUB M 84 GDAŃSK SĄSIEDZI TEAM 5km 0:28:44 0:00:00 0:28:44 10.44 [km/h] 11:45 [min/km]
129 77 GIBAS LUCYNA K 45 TCZEW 5km 0:28:47 0:00:09 0:28:56 10.42 [km/h] 11:45 [min/km]
130 85 GORNOWICZ DANIELA K 46 STAROGARD GDAŃSKI MEDPHARMA 5km 0:28:50 0:00:02 0:28:52 10.40 [km/h] 11:46 [min/km]
131 256 SITARCZUK KRZYSZTOF M 85 GDAŃSK SP 1 GDAŃSK 5km 0:28:52 0:00:17 0:29:09 10.39 [km/h] 11:46 [min/km]
132 257 SITARCZUK MARIUSZ M 86 GDAŃSK JEDZIEMY DO ODCIĘCIA ;) 5km 0:28:54 0:00:16 0:29:10 10.38 [km/h] 11:47 [min/km]
133 64 FILIP KRZYSZTOF M 87 DĘBOGÓRZE 5km 0:29:02 0:00:14 0:29:16 10.33 [km/h] 11:48 [min/km]
134 239 PUSZKO KRZYSZTOF M 88 GDAŃSK ŻARTA WATAHA 5km 0:29:02 0:00:02 0:29:04 10.33 [km/h] 11:48 [min/km]
135 158 KRÓLIK KATARZYNA K 47 GDAŃSK 5km 0:29:03 0:00:24 0:29:27 10.33 [km/h] 11:49 [min/km]
136 24 TOLAŚKA TOMASZ M 89 SIERAKOWICE 5km 0:29:10 0:00:03 0:29:13 10.29 [km/h] 11:50 [min/km]
137 133 KĘDZIA EDYTA K 48 GDAŃSK GRUPA BIEGOWA 65 5km 0:29:12 0:00:17 0:29:29 10.27 [km/h] 11:50 [min/km]
138 198 MELER BENIA K 49 WAGENINGEN PRUSZCZ BIEGA 5km 0:29:21 0:00:25 0:29:46 10.22 [km/h] 11:52 [min/km]
139 129 KAMIŃSKA KAMILA K 50 GDANSK IRON TEAM PRUSZCZ BIEGA 5km 0:29:21 0:00:25 0:29:46 10.22 [km/h] 11:52 [min/km]
140 199 MELER ULA K 51 PRUSZCZ GDAŃSKI PRUSZCZ BIEGA 5km 0:29:22 0:00:25 0:29:47 10.22 [km/h] 11:52 [min/km]
141 160 KUJAWSKA MARCELINA K 52 PRUSZCZ GDAŃSKI IRON TEAM 5km 0:29:24 0:00:20 0:29:44 10.20 [km/h] 11:53 [min/km]
142 159 KUCHTA MALGORZATA K 53 GDANSK 5km 0:29:25 0:00:19 0:29:44 10.20 [km/h] 11:53 [min/km]
143 73 GAŁĘZOWSKI MAREK M 90 GDAŃSK STRASZYN BIEGA 5km 0:29:29 0:00:05 0:29:34 10.18 [km/h] 11:54 [min/km]
144 153 KOZIKOWSKA DOMINIKA K 54 STRASZYN LPP TEAM 5km 0:29:29 0:00:05 0:29:34 10.18 [km/h] 11:54 [min/km]
145 226 PILARCZYK-PUPIEC AGNIESZKA K 55 RUMIA UKS SIÓDEMKA RUMIA 5km 0:29:35 0:00:16 0:29:51 10.14 [km/h] 11:55 [min/km]
146 238 PUPIEC MARIUSZ M 91 RUMIA UKS SIÓDEMKA RUMIA 5km 0:29:35 0:00:16 0:29:51 10.14 [km/h] 11:55 [min/km]
147 242 RECA JUSTYNA K 56 GDAŃSK 5km 0:29:37 0:00:00 0:29:37 10.13 [km/h] 11:55 [min/km]
148 237 PRZYŁUCKI ROBERT M 92 GDAŃSK 5km 0:29:38 0:00:23 0:30:01 10.12 [km/h] 11:56 [min/km]
149 99 TORONE ELLEN M 93 GDAŃSK 5km 0:29:40 0:00:17 0:29:57 10.11 [km/h] 11:56 [min/km]
150 265 STAWIARSKI FRANCISZEK M 94 GDANSK FRANC 5km 0:29:41 0:00:19 0:30:00 10.11 [km/h] 11:56 [min/km]
151 270 STOLTMANN PAULINA K 57 GDAŃSK 5km 0:29:43 0:00:21 0:30:04 10.10 [km/h] 11:57 [min/km]
152 181 LEUSZ ZUZANNA K 58 PRUSZCZ GDAŃSKI 5km 0:29:51 0:00:08 0:29:59 10.05 [km/h] 11:58 [min/km]
153 91 GRĘBECKA MAGDALENA K 59 GDAŃSK 5km 0:29:53 0:00:21 0:30:14 10.04 [km/h] 11:59 [min/km]
154 68 FRĄCKIEWICZ IWONA K 60 GDAŃSK 5km 0:29:55 0:00:03 0:29:58 10.03 [km/h] 11:59 [min/km]
155 260 SMENTOCH KAROLINA K 61 GDAŃSK NIEDZIELNI BIEGACZE 5km 0:29:56 0:00:04 0:30:00 10.02 [km/h] 11:59 [min/km]
156 2 APANASEWICZ JERZY M 95 PRUSZCZ GDANSKI IRON TEAM 5km 0:29:56 0:00:27 0:30:23 10.02 [km/h] 11:59 [min/km]
157 3 APANASEWICZ MAGDA K 62 PRUSZCZ GDAŃSKI IRON TEAM 5km 0:29:56 0:00:27 0:30:23 10.02 [km/h] 11:59 [min/km]
158 105 HOLAŚ HALINA K 63 GDAŃSK NIEDZIELNI BIEGACZE 5km 0:30:00 0:00:00 0:30:00 10.00 [km/h] 11:00 [min/km]
159 9 RADEWICZ PRZEMEK M 96 GDAŃSK 5km 0:30:02 0:00:30 0:30:32 9.99 [km/h] 11:00 [min/km]
160 201 MICHAŁOWSKA-DYMEK JOANNA K 64 GDAŃSK ŻARTA WATAHA 5km 0:30:03 0:00:04 0:30:07 9.98 [km/h] 11:01 [min/km]
161 170 KUŹMA MATEUSZ M 97 KOWALE 5km 0:30:05 0:00:17 0:30:22 9.97 [km/h] 11:01 [min/km]
162 174 KWIATKOWSKI SEBASTIAN M 98 IŁAWA 5km 0:30:10 0:00:16 0:30:26 9.94 [km/h] 11:02 [min/km]
163 200 MICHAŁOWSKA KASIA K 65 GDAŃSK NORDEA 5km 0:30:18 0:00:07 0:30:25 9.90 [km/h] 11:04 [min/km]
164 1 AFTYKA ANNA K 66 GDAŃSK ŻARTA WATAHA 5km 0:30:27 0:00:03 0:30:30 9.85 [km/h] 11:05 [min/km]
165 193 MAJEWSKA SYLWIA K 67 GDAŃSK 5km 0:30:28 0:00:03 0:30:31 9.85 [km/h] 11:06 [min/km]
166 290 WIETRZYŃSKI KRYSTIAN M 99 LINIEWO 5km 0:30:35 0:00:00 0:30:35 9.81 [km/h] 11:07 [min/km]
167 27 BOSIACKA MAGDALENA K 68 TCZEW 5km 0:30:36 0:00:00 0:30:36 9.80 [km/h] 11:07 [min/km]
168 26 BORYS JAROSŁAW M 100 BORKOWO BORKOWO TEAM 5km 0:30:46 0:00:00 0:30:46 9.75 [km/h] 11:09 [min/km]
169 89 GRABIŃSKA SARA K 69 CHOCZEWO 5km 0:30:49 0:00:30 0:31:19 9.73 [km/h] 11:10 [min/km]
170 18 BIANGA DOROTA K 70 CHOCZEWO 5km 0:30:49 0:00:29 0:31:18 9.73 [km/h] 11:10 [min/km]
171 28 BOZA BEATA K 71 GDYNIA GREIF TEAM WŁADYSŁAWOWO 5km 0:31:00 0:00:07 0:31:07 9.68 [km/h] 11:12 [min/km]
172 111 JAMRÓZ RENATA K 72 GDYNIA BIG YELOW FOOD ADVENTURE TEAM 5km 0:31:02 0:00:06 0:31:08 9.67 [km/h] 11:12 [min/km]
173 110 JAKUBOWSKA BASIA K 73 GDAŃSK GOYELLO POWER CLUB 5km 0:31:02 0:00:06 0:31:08 9.67 [km/h] 11:12 [min/km]
174 109 JAKUBIEC-STAWICKA IZABELA K 74 PRUSZCZ GDAŃSKI 5km 0:31:02 0:00:05 0:31:07 9.67 [km/h] 11:12 [min/km]
175 255 SIERACKA AGA K 75 GDAŃSK GOYELLO POWER CLUB 5km 0:31:03 0:00:05 0:31:08 9.66 [km/h] 11:13 [min/km]
176 282 TYRAN JAROSŁAW M 101 GDAŃSK BAKT TEAM 5km 0:31:07 0:00:11 0:31:18 9.64 [km/h] 11:13 [min/km]
177 144 KONIECZNY ANDRZEJ M 102 GDYNIA 5km 0:31:07 0:00:19 0:31:26 9.64 [km/h] 11:13 [min/km]
178 186 LIS EWELINA K 76 SKARSZEWY MORSY SKARSZEWY 5km 0:31:11 0:00:13 0:31:24 9.62 [km/h] 11:14 [min/km]
179 123 JERECZEK ADRIANNA K 77 GDAŃSK 5km 0:31:15 0:00:26 0:31:41 9.60 [km/h] 11:15 [min/km]
180 52 DĄBEK KATARZYNA K 78 GDAŃSK 5km 0:31:25 0:00:28 0:31:53 9.55 [km/h] 11:17 [min/km]
181 88 GRABARZ AGNIESZKA K 79 STAROGARD 5km 0:31:30 0:00:06 0:31:36 9.52 [km/h] 11:18 [min/km]
182 251 SARNOWSKA ALEKSANDRA K 80 GDYNIA KONTENER FORMY 5km 0:31:34 0:00:09 0:31:43 9.50 [km/h] 11:19 [min/km]
183 275 ŚWIĄTEK EDYTA K 81 ROKITNICA 5km 0:31:42 0:00:00 0:31:42 9.46 [km/h] 11:20 [min/km]
184 51 ROSŁAN JADWIGA K 82 PSZCZÓŁKI 5km 0:31:47 0:00:06 0:31:53 9.44 [km/h] 11:21 [min/km]
185 49 CZĘŚCIK GRAŻYNA K 83 GDAŃSK SĄSIEDZI TEAM 5km 0:31:57 0:00:11 0:32:08 9.39 [km/h] 11:23 [min/km]
186 234 PRZELICKA ALEKSANDRA K 84 GDAŃSK SĄSIEDZI TEAM 5km 0:31:57 0:00:11 0:32:08 9.39 [km/h] 11:23 [min/km]
187 46 CZECHOWSKA MARIA K 85 GDAŃSK 5km 0:31:57 0:00:07 0:32:04 9.39 [km/h] 11:23 [min/km]
188 221 PAKURA KAROLINA K 86 GDAŃSK DREAM TRI TEAM 5km 0:32:02 0:00:00 0:32:02 9.37 [km/h] 11:24 [min/km]
189 131 KARBOWSKI MICHAŁ M 103 GDAŃSK 5km 0:32:05 0:00:12 0:32:17 9.35 [km/h] 11:25 [min/km]
190 62 FEDE-ZAJĄC ANITA K 87 GDAŃSK DREAM TRI TEAM 5km 0:32:09 0:00:00 0:32:09 9.33 [km/h] 11:26 [min/km]
191 113 JANKOWSKI MAREK M 104 GDAŃSK 5km 0:32:12 0:00:00 0:32:12 9.32 [km/h] 11:26 [min/km]
192 192 MAGIER KRZYSZTOF M 105 GDAŃSK 5km 0:32:12 0:00:28 0:32:40 9.32 [km/h] 11:26 [min/km]
193 98 HEJKA WLADYSLAW M 106 KARTUZY 5km 0:32:21 0:00:02 0:32:23 9.27 [km/h] 11:28 [min/km]
194 149 KOTŁOWSKA MARLENA K 88 KWIDZYN KWIDZYN BIEGA 5km 0:32:22 0:00:17 0:32:39 9.27 [km/h] 11:28 [min/km]
195 292 WINCEŁOWICZ JULIA K 89 GDAŃSK 5km 0:32:25 0:00:26 0:32:51 9.25 [km/h] 11:29 [min/km]
196 139 KOŁOWROCKA BARBARA K 90 STRASZYN KOŁOWROTKI 5km 0:32:29 0:00:00 0:32:29 9.24 [km/h] 11:30 [min/km]
197 108 JAGŁA SYLWIA K 91 GDAŃSK 5km 0:32:33 0:00:00 0:32:33 9.22 [km/h] 11:31 [min/km]
198 31 BUKOWSKA ALEKSANDRA K 92 GDAŃSK 5km 0:32:37 0:00:07 0:32:44 9.20 [km/h] 11:31 [min/km]
199 249 RUCIŃSKA JOANNA K 93 TCZEW 5km 0:32:40 0:00:26 0:33:06 9.18 [km/h] 11:32 [min/km]
200 281 TUREK MARZENA K 94 WOCŁAWY 5km 0:32:40 0:00:03 0:32:43 9.18 [km/h] 11:32 [min/km]
201 212 NIBURSKI RAFAŁ M 107 ELBLĄG SECESPOL 5km 0:32:43 0:00:27 0:33:10 9.17 [km/h] 11:33 [min/km]
202 10 BARECKA KAROLINA K 95 GDAŃSK SECESPOL / IRON TEAM 5km 0:32:43 0:00:27 0:33:10 9.17 [km/h] 11:33 [min/km]
203 262 SOBOLEWSKI DAWID M 108 GDAŃSK SECESPOL 5km 0:32:44 0:00:26 0:33:10 9.16 [km/h] 11:33 [min/km]
204 267 STAWICKI GERARD M 109 BORKOWO 5km 0:32:44 0:00:13 0:32:57 9.16 [km/h] 11:33 [min/km]
205 65 FLIS KRZYSZTOF M 110 ROTMANKA AMATOR 5km 0:32:44 0:00:16 0:33:00 9.16 [km/h] 11:33 [min/km]
206 196 MATYSKIEL ANITA K 96 GDAŃSK IREK I RAK - MARATON O ŻYCIE 5km 0:32:44 0:00:16 0:33:00 9.16 [km/h] 11:33 [min/km]
207 94 HALLMANN ALEKSANDRA K 97 GDAŃSK TRÓJKA 5km 0:32:50 0:00:04 0:32:54 9.14 [km/h] 11:34 [min/km]
208 303 ZALEWSKA BEATA K 98 GDAŃSK 5km 0:32:52 0:00:03 0:32:55 9.13 [km/h] 11:34 [min/km]
209 29 BOŻYK DARIA K 99 GDAŃSK IRON TEAM 5km 0:32:52 0:00:16 0:33:08 9.13 [km/h] 11:34 [min/km]
210 114 JANTA KATARZYNA K 100 GDAŃSK 5km 0:32:53 0:00:18 0:33:11 9.12 [km/h] 11:35 [min/km]
211 117 JAROSZEWICZ ALEKSANDRA K 101 GDAŃSK 5km 0:32:54 0:00:08 0:33:02 9.12 [km/h] 11:35 [min/km]
212 104 HIRT MARTA K 102 GDANSK IRON TEAM 5km 0:33:01 0:00:08 0:33:09 9.09 [km/h] 11:36 [min/km]
213 66 FRANKIEWICZ KAROLINA K 103 GDAŃSK IRON TEAM 5km 0:33:11 0:00:20 0:33:31 9.04 [km/h] 11:38 [min/km]
214 177 LATOSIŃSKA KAMILA K 104 GDAŃSK 5km 0:33:13 0:00:02 0:33:15 9.03 [km/h] 11:39 [min/km]
215 300 WRZOSEK SYLWIA K 105 GDAŃSK 5km 0:33:25 0:00:11 0:33:36 8.98 [km/h] 11:41 [min/km]
216 284 WAWRZYNIAK ANNA K 106 MIELEC 5km 0:33:27 0:00:00 0:33:27 8.97 [km/h] 11:41 [min/km]
217 236 CZERMONKA LUCYNA M 111 GDAŃSK 5km 0:33:27 0:00:00 0:33:27 8.97 [km/h] 11:41 [min/km]
218 37 CHUDEWNIAK DANUTA K 107 JUNOSZYNO WILKI ŻUŁAWSKIE 5km 0:33:28 0:00:11 0:33:39 8.96 [km/h] 11:42 [min/km]
219 126 JÓZEFIAK PAWEŁ M 112 GDAŃSK 5km 0:33:38 0:00:24 0:34:02 8.92 [km/h] 11:44 [min/km]
220 4 ARENDT AGNIESZKA K 108 GDAŃSK 5km 0:33:39 0:00:02 0:33:41 8.92 [km/h] 11:44 [min/km]
221 154 KOŻYCZKOWSKA AGNIESZKA K 109 GDAŃSK 5km 0:33:41 0:00:16 0:33:57 8.91 [km/h] 11:44 [min/km]
222 247 ROŻNOWSKA ALEKSANDRA K 110 PRUSZCZ GD. 5km 0:33:45 0:00:28 0:34:13 8.89 [km/h] 11:45 [min/km]
223 33 BURY MARCIN M 113 STAROGARD GD. ŻEBY CI SIĘ CHCIAŁO 5km 0:33:47 0:00:08 0:33:55 8.88 [km/h] 11:45 [min/km]
224 90 GRAGOWSKA SYLWIA K 111 PRUSZCZ GDANSKI IRON TEAM 5km 0:33:47 0:00:02 0:33:49 8.88 [km/h] 11:45 [min/km]
225 58 DUBOWSKA-KUŹNIA ANNA K 112 GDAŃSK 5km 0:33:53 0:00:16 0:34:09 8.85 [km/h] 11:47 [min/km]
226 40 CICH PATRYCJA K 113 ROTMANKA 5km 0:33:54 0:00:17 0:34:11 8.85 [km/h] 11:47 [min/km]
227 19 BIENIASZ STEFANIA K 114 PRUSZCZ GDAŃSKI 5km 0:33:58 0:00:17 0:34:15 8.83 [km/h] 11:48 [min/km]
228 34 CHMULAK KAROLINA K 115 GRABINY ZAMECZEK 5km 0:33:59 0:00:16 0:34:15 8.83 [km/h] 11:48 [min/km]
229 137 KŁODOWSKA EDYTA K 116 GDAŃSK 5km 0:33:59 0:00:24 0:34:23 8.83 [km/h] 11:48 [min/km]
230 283 WADOWSKA ANNA K 117 PRUSZCZ GDAŃSKI 5km 0:34:02 0:00:21 0:34:23 8.81 [km/h] 11:48 [min/km]
231 304 ZELEWSKI BARTŁOMIEJA K 118 GDAŃSK 5km 0:34:12 0:00:15 0:34:27 8.77 [km/h] 11:50 [min/km]
232 164 KULIKOWSKA ZOFIA K 119 SOPOT 5km 0:34:15 0:00:17 0:34:32 8.76 [km/h] 11:51 [min/km]
233 71 GAJEWSKA GRAŻYNA K 120 ZIELONA GÓRA 5km 0:34:18 0:00:12 0:34:30 8.75 [km/h] 11:52 [min/km]
234 253 SEGRETO LUCIANO M 114 FLORENCJA WYDZIAŁOWY TEAM BIEGOWY WZIE PG 5km 0:34:26 0:00:06 0:34:32 8.71 [km/h] 11:53 [min/km]
235 263 SOJECKA IRENA K 121 HEL 5km 0:34:32 0:00:23 0:34:55 8.69 [km/h] 11:54 [min/km]
236 6 BANASZEK GRZEGORZ M 115 WOCŁAWY 5km 0:34:36 0:00:10 0:34:46 8.67 [km/h] 11:55 [min/km]
237 12 BARTOSIEWICZ MARTA K 122 JUSZKOWO 5km 0:34:38 0:00:21 0:34:59 8.66 [km/h] 11:56 [min/km]
238 112 JANKOWSKA ANNA K 123 SOPOT 5km 0:34:48 0:00:20 0:35:08 8.62 [km/h] 11:58 [min/km]
239 171 KUŹNIA JUSTYNA K 124 GDAŃSK 5km 0:34:56 0:00:00 0:34:56 8.59 [km/h] 11:59 [min/km]
240 231 POLIS MARZENA K 125 GDAŃSK 5km 0:34:58 0:00:02 0:35:00 8.58 [km/h] 11:00 [min/km]
241 240 RADOMSKA JOANNA K 126 GDAŃSK 5km 0:34:58 0:00:02 0:35:00 8.58 [km/h] 11:00 [min/km]
242 86 GORZĄD SYLWIA K 127 GDAŃSK 5km 0:35:01 0:00:10 0:35:11 8.57 [km/h] 11:00 [min/km]
243 278 TAŃCZYK DOROTA K 128 GDŃSK 5km 0:35:31 0:00:08 0:35:39 8.45 [km/h] 11:06 [min/km]
244 92 GUMKOWSKA LILIANA K 129 GDAŃSK 5km 0:35:33 0:00:13 0:35:46 8.44 [km/h] 11:07 [min/km]
245 22 BOBERSKA KAROLINA K 130 GDAŃSK 5km 0:35:33 0:00:13 0:35:46 8.44 [km/h] 11:07 [min/km]
246 150 KOWALSKA-PASIEKA BOŻENA K 131 KWIDZYN DRUŻYNA SZPIKU 5km 0:35:36 0:00:13 0:35:49 8.43 [km/h] 11:07 [min/km]
247 145 KORALEWSKA IRENA K 132 SADLINKI TRAKTOR TEAM GMINA KWIDZYN 5km 0:35:36 0:00:13 0:35:49 8.43 [km/h] 11:07 [min/km]
248 83 GOŁUŃSKA HANNA K 133 GDAŃSK SĄSIEDZI TEAM 5km 0:35:51 0:00:01 0:35:52 8.37 [km/h] 11:10 [min/km]
249 210 NAŁĘCZ AGNIESZKA K 134 STRASZYN 5km 0:35:58 0:00:12 0:36:10 8.34 [km/h] 11:12 [min/km]
250 84 GOŁUŃSKA MARZENA K 135 GDAŃSK SĄSIEDZI TEAM 5km 0:36:22 0:00:01 0:36:23 8.25 [km/h] 11:16 [min/km]
251 47 CZE-GA SYLWIA K 136 DĘBOGÓRZE KOMANDO FLAKI 5km 0:36:28 0:00:02 0:36:30 8.23 [km/h] 11:18 [min/km]
252 121 JAŚKOWIAK LUCYNA K 137 PRUSZCZ GDAŃSKI 5km 0:36:33 0:00:18 0:36:51 8.21 [km/h] 11:19 [min/km]
253 82 GOŁĘBIEWSKA DARIA K 138 GDAŃSK IRON TEAM 5km 0:37:00 0:00:10 0:37:10 8.11 [km/h] 11:24 [min/km]
254 30 BRZESKA MAŁGORZATA K 139 MIERZESZYN PARKAN 5km 0:37:21 0:00:12 0:37:33 8.03 [km/h] 11:28 [min/km]
255 63 FIGURA JOANNA K 140 GDAŃSK 5km 0:37:32 0:00:06 0:37:38 7.99 [km/h] 11:30 [min/km]
256 289 WIERZCHOWSKA KAROLINA K 141 GDAŃSK PARKAN 5km 0:37:33 0:00:00 0:37:33 7.99 [km/h] 11:31 [min/km]
257 132 KASZUBOWSKA SABINA K 142 MALACHIN 5km 0:37:48 0:00:15 0:38:03 7.94 [km/h] 11:34 [min/km]
258 310 ŻELEWSKI DARIUSZ M 116 RUMIA BWM W GRUPIE MOC ! 5km 0:38:10 0:00:22 0:38:32 7.86 [km/h] 11:38 [min/km]
259 309 ŻELEWSKA ALEKSANDRA K 143 RUMIA SP9 5km 0:38:11 0:00:22 0:38:33 7.86 [km/h] 11:38 [min/km]
260 246 ROZMARYNOWICZ PATRYCJA K 144 DĄBROWA CHEŁMIŃSKA WOLNOŚĆ 5km 0:38:11 0:00:01 0:38:12 7.86 [km/h] 11:38 [min/km]
261 245 ROZMARYNOWICZ ANNA K 145 DĄBROWA CHEŁMIŃSKA WOLNOŚĆ 5km 0:38:12 0:00:01 0:38:13 7.85 [km/h] 11:38 [min/km]
262 214 NOWAK BEATA K 146 GDAŃSK 5km 0:38:14 0:00:02 0:38:16 7.85 [km/h] 11:39 [min/km]
263 87 GÓRA BEATA K 147 GDAŃSK 5km 0:38:15 0:00:01 0:38:16 7.84 [km/h] 11:39 [min/km]
264 119 JASKUŁOWSKI ARTUR M 117 STRASZYN WARIACKI TEAM 5km 0:38:18 0:00:12 0:38:30 7.83 [km/h] 11:40 [min/km]
265 118 JASKUŁOWSKA BEATA K 148 STRASZYN WARIACKI TEAM 5km 0:38:18 0:00:11 0:38:29 7.83 [km/h] 11:40 [min/km]
266 307 ZIĘKIEWICZ MARIKA K 149 GDAŃSK 5km 0:38:36 0:00:27 0:39:03 7.77 [km/h] 11:43 [min/km]
267 13 BĄK ALEKSANDRA K 150 GDAŃSK 5km 0:38:36 0:00:27 0:39:03 7.77 [km/h] 11:43 [min/km]
268 203 MIKŁASZEWICZ ANNA K 151 GDAŃSK 5km 0:38:36 0:00:10 0:38:46 7.77 [km/h] 11:43 [min/km]
269 293 WINCEŁOWICZ MAGDALENA K 152 GDAŃSK 5km 0:38:38 0:00:25 0:39:03 7.77 [km/h] 11:44 [min/km]
270 152 KOZICKA BOŻENA K 153 GDAŃSK IRON TEAM 5km 0:38:44 0:00:08 0:38:52 7.75 [km/h] 11:45 [min/km]
271 78 GIEDROYĆ DOROTA K 154 GDAŃSK IRON TEAM 5km 0:38:45 0:00:07 0:38:52 7.74 [km/h] 11:45 [min/km]
272 187 LUBIŃSKA PAULINA K 155 STRASZYN SZKOŁA PODSTAWOWA W STRASZYNIE 5km 0:38:45 0:00:22 0:39:07 7.74 [km/h] 11:45 [min/km]
273 188 LUBIŃSKA SYLWIA K 156 STRASZYN 5km 0:38:46 0:00:22 0:39:08 7.74 [km/h] 11:45 [min/km]
274 191 MAGIER ALEKSANDRA K 157 GDAŃSK 5km 0:38:49 0:00:27 0:39:16 7.73 [km/h] 11:46 [min/km]
275 272 SZUBERT JOANNA K 158 GDAŃSK 5km 0:40:52 0:00:21 0:41:13 7.34 [km/h] 11:10 [min/km]
276 161 KULCZYCKI JAN M 118 GDAŃSK 5km 0:43:21 0:00:31 0:43:52 6.92 [km/h] 11:40 [min/km]
277 125 JÓZEFIAK PATRYCJA K 159 GDAŃSK 5km 0:50:14 0:00:24 0:50:38 5.97 [km/h] 11:03 [min/km]
278 141 KOMOROWSKA SABINA K 160 GDAŃSK 5km 0:50:15 0:00:23 0:50:38 5.97 [km/h] 11:03 [min/km]
279 122 JAŚKOWIAK RYSZARD M 119 PRUSZCZ GDAŃSKI 5km 0:53:19 0:00:19 0:53:38 5.63 [km/h] 11:40 [min/km]

Komunikat. Wykorzystujemy pliki cookies, aby nasz serwis lepiej spełniał Państwa oczekiwania. Można zablokować zapisywanie cookies, zmieniając ustawienia przeglądarki. [x] __ZAMKNIJ